Regional Weather Roundup
Issued by NWS

Home | Current Version | Previous Version | Graphics & Text | Print | Product List | Glossary On
Versions: 1 2 3 4 5 6 7 8 9 10 11 12 13 14 15 16 17 18 19 20 21 22 23 24 25 26 27 28 29 30 31 32 33 34 35 36 37 38 39 40 41 42 43 44 45 46 47 48 49 50
704
ASUS43 KBIS 251410
RWRND

NORTH DAKOTA REGIONAL WEATHER ROUNDUP
NATIONAL WEATHER SERVICE BISMARCK ND
900 AM CDT SAT MAR 25 2017

NOTE: "FAIR" INDICATES FEW OR NO CLOUDS BELOW 12,000 FEET WITH NO
SIGNIFICANT WEATHER AND/OR OBSTRUCTIONS TO VISIBILITY.


NDZ001>003-009>011-017-251500-
NORTHWEST NORTH DAKOTA

CITY           SKY/WX    TMP DP  RH WIND       PRES   REMARKS
WILLISTON      FAIR      42  33  70 S8        29.85R
MINOT          FAIR      33  30  88 SE10      29.94F
MINOT AFB      CLOUDY    31  30  94 SE13      29.93F
$$

NDZ018>021-031>035-040>046-251500-
SOUTHWEST NORTH DAKOTA

CITY           SKY/WX    TMP DP  RH WIND       PRES   REMARKS
BISMARCK       CLOUDY    31  31 100 SE17      30.04S FOG     WCI  19
DICKINSON      FAIR      35  30  82 S12       29.89R
GARRISON         N/A     31  30  96 SE14      29.96S
HETTINGER ARPT CLOUDY    34  30  85 SE10      29.94S
$$

NDZ004>008-012>016-024-026-027-054-251500-
NORTHEAST NORTH DAKOTA

CITY           SKY/WX    TMP DP  RH WIND       PRES   REMARKS
GRAND FORKS    CLOUDY    34  32  92 SE14      30.16S
GRND FRKS AFB  CLOUDY    32  32  99 S13       30.15S
DEVILS LAKE    FAIR      29  27  92 SE14      30.07F WCI  18
$$

NDZ022-023-025-028>030-036>039-047>053-251500-
SOUTHEAST NORTH DAKOTA

CITY           SKY/WX    TMP DP  RH WIND       PRES   REMARKS
FARGO          SUNNY     35  31  85 SE12      30.18R
JAMESTOWN      CLOUDY    30  29  96 S13       30.10S FOG     WCI  20
$$





USA.gov is the U.S. government's official web portal to all federal, state and local government web resources and services.